FW8255 Weather Reports


Display with metric or nautical units.
time (UTC)temp
F
wind
direction
speed
MPH
gust
MPH
rain 1hr
in
rain 24hr
in
rain mn
in
humidity
%
barometer
mb
20260506102046 44 313 2.0 3.0 0.00 0.28 0.28 99 1008.1
20260506101542 44 359 2.0 3.0 0.00 0.28 0.28 99 1008.0
20260506101039 44 319 0.0 1.0 0.00 0.28 0.28 99 1007.4
20260506100538 44 328 1.0 2.0 0.00 0.28 0.28 99 1007.2
20260506100035 44 15 4.0 5.0 0.00 0.28 0.28 99 1007.2
20260506095534 44 5 1.0 2.0 0.00 0.28 0.28 99 1007.4
20260506095030 44 345 1.0 3.0 0.00 0.28 0.28 99 1007.5
20260506094528 44 330 4.0 6.0 0.00 0.28 0.28 99 1007.9
20260506094026 44 336 5.0 7.0 0.05 0.28 0.28 99 1007.9
20260506093524 44 290 1.0 2.0 0.05 0.28 0.28 99 1008.1
20260506093021 44 319 2.0 3.0 0.00 0.27 0.27 99 1008.3
20260506092519 44 325 3.0 3.0 0.00 0.27 0.27 99 1008.3
20260506092015 44 329 1.0 3.0 0.07 0.27 0.27 99 1008.1
20260506091514 45 318 2.0 5.0 0.07 0.27 0.27 99 1008.3
20260506091010 45 318 0.0 3.0 0.00 0.26 0.26 99 1008.3
20260506090508 45 294 1.0 2.0 0.07 0.26 0.26 99 1008.0
20260506090004 45 350 3.0 6.0 0.07 0.26 0.26 99 1008.0
20260506085501 45 317 1.0 5.0 0.00 0.25 0.25 99 1008.0
20260506084958 44 327 1.0 3.0 0.00 0.25 0.25 99 1007.9
20260506084454 44 320 0.0 1.0 0.00 0.25 0.25 99 1007.8
20260506083950 44 326 2.0 3.0 0.00 0.25 0.25 99 1007.5
20260506083448 44 335 0.0 1.0 0.00 0.25 0.25 99 1007.9
20260506082945 44 323 1.0 3.0 0.00 0.25 0.25 99 1007.8
20260506082442 44 332 2.0 3.0 0.05 0.25 0.25 99 1007.7
20260506081938 44 322 0.0 1.0 0.05 0.25 0.25 99 1008.1
20260506081436 44 325 2.0 6.0 0.00 0.24 0.24 99 1008.1
20260506080933 44 326 1.0 3.0 0.07 0.24 0.24 99 1008.0
20260506080430 44 335 2.0 3.0 0.07 0.24 0.24 99 1008.0
20260506073414 44 324 2.0 2.0 0.05 0.21 0.21 99 1008.1
20260506072911 44 325 2.0 3.0 0.05 0.21 0.21 99 1008.0
20260506072409 44 333 5.0 8.0 0.00 0.20 0.20 99 1007.8
20260506071906 44 318 1.0 3.0 0.07 0.20 0.20 99 1007.9
20260506071404 44 324 3.0 3.0 0.07 0.20 0.20 99 1007.7
20260506070901 45 329 1.0 3.0 0.05 0.19 0.19 99 1007.7
20260506070357 45 336 2.0 2.0 0.05 0.19 0.19 99 1007.7
20260506062335 45 339 2.0 2.0 0.00 0.15 0.15 99 1007.8
20260506061830 45 330 2.0 3.0 0.00 0.15 0.15 99 1008.0
20260506061327 45 353 1.0 2.0 0.07 0.15 0.15 99 1008.0
20260506060826 45 320 0.0 1.0 0.12 0.15 0.15 99 1007.9
20260506060323 45 7 1.0 2.0 0.12 0.14 0.14 99 1007.9
20260506051255 45 3 6.0 7.0 0.07 0.05 0.05 99 1008.3
20260506050753 45 1 2.0 3.0 0.07 0.05 0.05 99 1008.3
20260506050250 45 2 2.0 5.0 0.05 0.04 0.04 99 1008.2
20260506044741 45 326 1.0 3.0 0.00 0.03 0.03 99 1008.3
20260506044238 45 328 1.0 2.0 0.07 0.03 0.03 99 1008.6
20260506043735 45 352 3.0 7.0 0.07 0.03 0.03 99 1008.5
20260506043233 45 317 3.0 7.0 0.00 0.02 0.02 99 1008.5
20260506042731 46 26 3.0 5.0 0.07 0.02 0.02 99 1008.8
20260506042229 46 341 2.0 3.0 0.07 0.02 0.02 99 1008.5
20260506041728 46 327 3.0 6.0 0.00 0.01 0.01 99 1008.6
20260506041224 46 341 4.0 6.0 0.05 0.01 0.01 99 1008.8
20260506040722 46 316 2.0 7.0 0.05 0.01 0.01 99 1008.8
20260506040219 47 327 1.0 8.0 0.07 0.00 0.00 99 1008.6
20260506035715 47 321 3.0 6.0 0.07 0.91 0.91 99 1008.6
20260506035212 48 318 1.0 6.0 0.05 0.90 0.90 99 1009.0
20260506034709 48 331 2.0 2.0 0.05 0.90 0.90 99 1009.0
20260506034206 48 317 1.0 2.0 0.07 0.89 0.89 99 1009.0
20260506033704 48 358 5.0 6.0 0.07 0.89 0.89 99 1009.1
20260506033200 48 325 1.0 3.0 0.05 0.88 0.88 99 1009.0
20260506032657 48 321 1.0 2.0 0.07 0.87 0.87 99 1009.2
20260506032154 48 350 3.0 3.0 0.12 0.87 0.87 99 1009.1
20260506031651 48 349 1.0 2.0 0.12 0.86 0.86 99 1009.2
20260506031148 48 323 0.0 2.0 0.07 0.85 0.85 99 1009.2
20260506030647 48 328 0.0 1.0 0.05 0.84 0.84 99 1009.1
20260506030143 48 318 0.0 0.0 0.12 0.84 0.84 99 1009.3
20260506025640 48 323 0.0 0.0 0.12 0.83 0.83 99 1009.5
20260506025136 48 322 0.0 0.0 0.12 0.82 0.82 99 1009.4
20260506024634 48 324 0.0 0.0 0.14 0.81 0.81 99 1009.4
20260506024130 48 303 2.0 2.0 0.12 0.80 0.80 99 1009.5
20260506023626 48 298 2.0 2.0 0.12 0.79 0.79 99 1009.5
20260506023124 48 321 1.0 2.0 0.19 0.78 0.78 99 1009.0
20260506022621 48 357 3.0 3.0 0.24 0.77 0.77 99 1009.1
20260506022118 48 354 1.0 5.0 0.17 0.75 0.75 99 1008.8
20260506021616 48 332 3.0 3.0 0.12 0.73 0.73 99 1008.6
20260506021113 48 326 0.0 2.0 0.12 0.72 0.72 99 1008.6
20260506020610 48 342 3.0 3.0 0.12 0.71 0.71 99 1008.5
20260506020108 48 331 0.0 2.0 0.12 0.70 0.70 99 1008.5
20260506015605 48 328 1.0 3.0 0.05 0.69 0.69 99 1008.3
20260506015102 48 344 3.0 5.0 0.14 0.68 0.68 99 1008.1
20260506014600 48 31 4.0 5.0 0.19 0.68 0.68 99 1008.2
20260506014055 48 1 2.0 2.0 0.17 0.66 0.66 99 1008.4
20260506013553 48 324 1.0 3.0 0.19 0.65 0.65 99 1008.3
20260506013050 49 326 1.0 2.0 0.12 0.63 0.63 99 1008.5
20260506012546 48 343 2.0 3.0 0.12 0.62 0.62 99 1008.5
20260506012043 49 343 1.0 3.0 0.12 0.61 0.61 99 1008.9
20260506011541 49 337 1.0 2.0 0.12 0.60 0.60 99 1008.6
20260506011036 49 346 1.0 2.0 0.19 0.59 0.59 99 1008.5
20260506010531 48 336 1.0 2.0 0.19 0.57 0.57 99 1008.4
20260506010027 48 353 3.0 3.0 0.19 0.56 0.56 99 1008.4
20260506005524 49 345 0.0 5.0 0.07 0.54 0.54 99 1008.4
20260506005019 48 19 3.0 8.0 0.05 0.53 0.53 99 1007.8
20260506004517 49 344 2.0 3.0 0.17 0.53 0.53 99 1009.0
20260506004014 48 343 2.0 3.0 0.31 0.52 0.52 99 1008.2
20260506003510 49 351 1.0 3.0 0.24 0.50 0.50 99 1008.0
20260506003006 49 11 1.0 2.0 0.12 0.47 0.47 99 1007.8
20260506002502 49 355 1.0 3.0 0.12 0.46 0.46 99 1007.9
20260506001958 49 359 2.0 3.0 0.05 0.45 0.45 99 1008.0
20260506001454 49 5 1.0 3.0 0.00 0.44 0.44 99 1008.0
20260506000952 49 353 1.0 5.0 0.00 0.44 0.44 99 1008.0
20260506000449 49 12 3.0 5.0 0.00 0.44 0.44 99 1008.0
20260505235946 49 341 2.0 2.0 0.00 0.44 0.44 99 1008.1
20260505235445 49 338 0.0 2.0 0.00 0.44 0.44 99 1007.9
20260505234941 49 337 1.0 5.0 0.00 0.44 0.44 99 1008.1
20260505234439 49 336 1.0 3.0 0.07 0.44 0.44 99 1008.2
20260505233935 49 328 0.0 1.0 0.07 0.44 0.44 99 1007.9
20260505233433 49 328 4.0 5.0 0.07 0.43 0.43 99 1008.1
20260505232930 50 350 3.0 6.0 0.12 0.43 0.43 99 1008.2
20260505232428 50 348 2.0 5.0 0.12 0.42 0.42 99 1008.3
20260505231924 50 334 3.0 5.0 0.12 0.41 0.41 99 1008.3
20260505231422 51 324 2.0 3.0 0.12 0.40 0.40 99 1008.3
20260505230920 51 322 1.0 6.0 0.19 0.39 0.39 99 1008.3
20260505230418 51 333 5.0 7.0 0.12 0.37 0.37 99 1008.1
20260505225914 51 308 1.0 5.0 0.17 0.36 0.36 99 1008.4
20260505225411 52 314 3.0 6.0 0.31 0.35 0.35 99 1008.2
20260505224906 52 328 1.0 2.0 0.35 0.32 0.32 99 1008.4
20260505224404 52 335 3.0 5.0 0.28 0.29 0.29 99 1008.4
20260505223901 53 311 2.0 3.0 0.12 0.26 0.26 99 1008.0
20260505223357 53 21 5.0 6.0 0.00 0.24 0.24 99 1007.9
20260505222853 54 13 3.0 6.0 0.07 0.24 0.24 99 1007.7
20260505222350 55 344 5.0 7.0 0.07 0.24 0.24 99 1007.8
20260505221847 56 324 1.0 2.0 0.05 0.23 0.23 99 1007.6
20260505221344 56 320 1.0 1.0 0.05 0.23 0.23 99 1007.9
20260505220841 56 315 0.0 1.0 0.00 0.22 0.22 99 1007.8
20260505220338 56 297 0.0 2.0 0.00 0.22 0.22 99 1008.0
20260505215835 56 300 0.0 2.0 0.00 0.22 0.22 99 1007.9
20260505215333 57 306 1.0 2.0 0.00 0.22 0.22 99 1008.1
20260505214831 57 295 1.0 1.0 0.00 0.22 0.22 99 1007.8
20260505214328 56 305 0.0 1.0 0.00 0.22 0.22 99 1007.9
20260505213825 56 263 3.0 3.0 0.07 0.22 0.22 99 1007.9
20260505213323 56 311 0.0 5.0 0.07 0.22 0.22 99 1007.8
20260505212819 57 284 3.0 3.0 0.00 0.21 0.21 99 1007.7
20260505212316 57 302 3.0 5.0 0.05 0.21 0.21 99 1007.9
20260505211812 57 283 3.0 7.0 0.05 0.21 0.21 99 1007.9
20260505211310 57 292 2.0 3.0 0.00 0.20 0.20 99 1007.8
20260505210806 57 302 1.0 3.0 0.07 0.20 0.20 99 1007.9
20260505210303 57 299 1.0 3.0 0.38 0.20 0.20 99 1008.0
20260505205800 57 260 5.0 6.0 0.54 0.19 0.19 99 1007.9
20260505205259 57 302 2.0 6.0 0.28 0.14 0.14 98 1008.2
20260505204755 57 304 1.0 2.0 0.24 0.10 0.10 98 1007.6
20260505204253 58 281 2.0 5.0 0.26 0.09 0.09 98 1007.9
20260505203750 58 298 2.0 2.0 0.19 0.06 0.06 97 1007.8
20260505203247 58 274 2.0 2.0 0.12 0.05 0.05 97 1007.7
20260505202742 58 304 1.0 2.0 0.00 0.03 0.03 96 1007.4
20260505202239 58 290 1.0 2.0 0.05 0.03 0.03 96 1007.7
20260505201735 58 290 3.0 3.0 0.00 0.02 0.02 96 1007.8
20260505201233 58 299 2.0 5.0 0.00 0.02 0.02 96 1007.7
20260505200731 58 270 2.0 3.0 0.00 0.02 0.02 95 1007.9
20260505200228 58 303 2.0 7.0 0.00 0.02 0.02 95 1007.9
20260505195723 59 272 2.0 5.0 0.00 0.02 0.02 95 1007.9
20260505195221 59 271 5.0 6.0 0.00 0.02 0.02 94 1007.9
20260505194718 59 308 3.0 6.0 0.00 0.02 0.02 94 1007.6
20260505194215 59 282 3.0 3.0 0.07 0.02 0.02 93 1007.9
20260505193710 60 296 3.0 5.0 0.07 0.02 0.02 91 1007.9
20260505193208 60 274 3.0 5.0 0.00 0.01 0.01 88 1007.8
20260505192707 61 258 5.0 7.0 0.00 0.01 0.01 85 1007.7
20260505192204 62 245 4.0 5.0 0.00 0.01 0.01 82 1007.9
20260505191702 63 308 1.0 5.0 0.00 0.01 0.01 81 1007.8
20260505191200 63 262 3.0 3.0 0.00 0.01 0.01 81 1007.6
20260505190656 63 282 4.0 6.0 0.00 0.01 0.01 80 1007.5
20260505190155 63 295 4.0 7.0 0.00 0.01 0.01 80 1007.6
20260505185653 63 270 3.0 3.0 0.00 0.01 0.01 78 1007.8
20260505185149 63 264 4.0 6.0 0.00 0.01 0.01 77 1007.9
20260505184645 63 282 2.0 3.0 0.00 0.01 0.01 77 1008.1
20260505184142 64 279 3.0 9.0 0.00 0.01 0.01 77 1008.0
20260505183639 64 290 2.0 3.0 0.00 0.01 0.01 77 1008.1
20260505183137 63 245 6.0 7.0 0.00 0.01 0.01 77 1008.3
20260505182633 64 274 5.0 6.0 0.00 0.01 0.01 76 1008.0
20260505182130 64 263 5.0 6.0 0.00 0.01 0.01 77 1008.2
20260505181626 64 263 5.0 6.0 0.00 0.01 0.01 76 1008.2
20260505181124 64 295 4.0 8.0 0.00 0.01 0.01 77 1008.1
20260505180620 64 248 7.0 10.0 0.00 0.01 0.01 76 1008.0
20260505180118 64 273 4.0 8.0 0.00 0.01 0.01 76 1007.9
20260505175613 64 307 4.0 15.0 0.00 0.01 0.01 76 1008.0
20260505175110 64 283 4.0 8.0 0.00 0.01 0.01 76 1008.0
20260505174606 64 223 6.0 8.0 0.00 0.01 0.01 75 1007.9
20260505174103 64 295 5.0 7.0 0.00 0.01 0.01 74 1008.1
20260505173559 65 288 4.0 9.0 0.00 0.01 0.01 73 1007.9
20260505173056 65 252 8.0 11.0 0.00 0.01 0.01 73 1007.8
20260505172554 65 234 3.0 7.0 0.00 0.01 0.01 72 1007.8
20260505172050 65 274 7.0 9.0 0.00 0.01 0.01 72 1007.8
20260505171545 65 236 9.0 18.0 0.00 0.01 0.01 71 1007.8
20260505171042 65 263 8.0 13.0 0.00 0.01 0.01 72 1007.8
20260505170539 65 284 6.0 10.0 0.00 0.01 0.01 72 1007.8
20260505170036 65 245 5.0 9.0 0.00 0.01 0.01 71 1007.7
20260505165531 65 260 9.0 11.0 0.00 0.01 0.01 71 1007.8
20260505165027 65 250 5.0 7.0 0.00 0.01 0.01 71 1007.7
20260505164523 65 257 4.0 7.0 0.00 0.01 0.01 71 1007.6
20260505164021 65 279 6.0 13.0 0.00 0.01 0.01 71 1007.6
20260505163520 65 260 5.0 8.0 0.00 0.01 0.01 71 1007.8
20260505163016 65 252 9.0 14.0 0.00 0.01 0.01 70 1007.7
20260505162509 66 238 7.0 20.0 0.00 0.01 0.01 69 1008.0
20260505162006 66 299 5.0 10.0 0.00 0.01 0.01 69 1007.6
20260505161502 66 247 8.0 17.0 0.00 0.01 0.01 68 1007.7
20260505161000 66 236 11.0 15.0 0.00 0.01 0.01 68 1007.6
20260505160458 67 247 11.0 16.0 0.00 0.01 0.01 68 1007.6
20260505152934 67 268 8.0 10.0 0.00 0.01 0.01 66 1006.7
20260505152431 67 226 12.0 21.0 0.00 0.01 0.01 66 1006.8
20260505151926 67 223 11.0 22.0 0.00 0.01 0.01 67 1006.6
20260505151422 67 263 5.0 6.0 0.00 0.01 0.01 67 1006.7
20260505150920 66 205 10.0 13.0 0.00 0.01 0.01 67 1007.0
20260505150416 66 240 10.0 14.0 0.00 0.01 0.01 68 1006.9
20260505140340 64 239 14.0 22.0 0.00 0.01 0.01 74 1006.6
20260505130304 60 251 3.0 9.0 0.00 0.01 0.01 81 1006.8
20260505124754 60 293 3.0 11.0 0.00 0.01 0.01 81 1006.8
20260505124251 60 202 7.0 11.0 0.00 0.01 0.01 81 1006.8
20260505123746 60 247 3.0 5.0 0.00 0.01 0.01 82 1006.7
20260505123243 60 272 5.0 8.0 0.00 0.01 0.01 82 1006.5
20260505122740 60 312 1.0 16.0 0.00 0.01 0.01 82 1006.5
20260505122237 60 235 5.0 6.0 0.00 0.01 0.01 82 1006.4
20260505121734 60 252 4.0 7.0 0.00 0.01 0.01 81 1006.1
20260505121230 60 286 3.0 13.0 0.00 0.01 0.01 80 1006.2
20260505120727 60 301 3.0 8.0 0.00 0.01 0.01 79 1006.1
20260505120223 61 243 8.0 10.0 0.00 0.01 0.01 78 1005.8
20260505115721 60 227 12.0 23.0 0.00 0.01 0.01 78 1005.9
20260505115220 60 245 9.0 13.0 0.00 0.01 0.01 79 1005.3
20260505114717 60 255 3.0 5.0 0.00 0.01 0.01 79 1005.2
20260505114212 60 252 4.0 7.0 0.00 0.01 0.01 79 1005.2
20260505113709 60 228 2.0 6.0 0.00 0.01 0.01 79 1005.1
20260505113206 60 236 4.0 11.0 0.00 0.01 0.01 79 1005.0
20260505112702 59 260 4.0 8.0 0.00 0.01 0.01 84 1005.4
20260505112200 58 258 3.0 3.0 0.00 0.01 0.01 85 1005.4
20260505111700 58 257 4.0 7.0 0.05 0.01 0.01 85 1005.3
20260505111155 59 251 12.0 18.0 0.05 0.01 0.01 83 1005.4
20260505110652 60 315 2.0 7.0 0.00 0.00 0.00 80 1005.4
20260505110149 62 281 6.0 11.0 0.00 0.00 0.00 74 1005.8